Twin Falls, ID

1:18 AM MST on January 24, 2018 (GMT -0700)
Joslin Field-Magic Valley Regional

Weather History for KTWF - April, 2014

Change the Weather History Date:

Monday, April 28, 2014

  Actual Average Record
Temperature  
Mean Temperature 44 °F -  
Max Temperature 53 °F 64 °F 83 °F (2007)
Min Temperature 34 °F 38 °F 25 °F (1984)
Degree Days  
Heating Degree Days 21 14  
Month to date heating degree days 433 482  
Since 1 July heating degree days 5292 5771  
Cooling Degree Days 0 0  
Month to date cooling degree days 0 0  
Year to date cooling degree days 0 0  
Moisture  
Dew Point 22 °F    
Average Humidity 51    
Maximum Humidity 82    
Minimum Humidity 19    
Precipitation  
Precipitation 0.00 in 0.04 in 0.54 in (1990)
Month to date precipitation 0.82 1.05  
Year to date precipitation 4.95 3.88  
Sea Level Pressure  
Sea Level Pressure 30.17 in    
Wind  
Wind Speed 22 mph (WSW)    
Max Wind Speed 32 mph    
Max Gust Speed 41 mph    
Visibility 10 miles    
Events      
T = Trace of Precipitation, MM = Missing Value Source: NWS Daily Summary

Daily Weather History Graph

Daily Weather History Graph

Search for Another Location

Airport or City:

Trip Planner

Search our weather history database for the weather conditions in past years. The results will help you decide how hot, cold, wet, or windy it might be!

Date:

Astronomy

Apr. 28, 2014 Rise Set
Actual Time 6:36 AM MDT 8:34 PM MDT
Civil Twilight 6:06 AM MDT 9:05 PM MDT
Nautical Twilight 5:29 AM MDT 9:42 PM MDT
Astronomical Twilight 4:49 AM MDT 10:23 PM MDT
Moon 6:18 AM MDT (4/28) 8:16 PM MDT (4/28)
Length of Visible Light 14h 58m
Length of Day
13h 57m
Waning Crescent, 0% of the Moon is Illuminated
Apr 28
Waning Crescent
Apr 29
New
May 6
First Quarter
May 14
Full
May 21
Last Quarter

Hourly Weather History & Observations

Time (MDT) Temp. Windchill Dew Point Humidity Pressure Visibility Wind Dir Wind Speed Gust Speed Precip Events Conditions
1:42 AM 35.1 °F 24.1 °F 30.0 °F 82% 30.03 in 10.0 mi WSW 19.6 mph - N/A   Scattered Clouds
2:53 AM 34.0 °F 23.0 °F 28.9 °F 82% 30.01 in 10.0 mi SW 18.4 mph - N/A   Clear
3:53 AM 35.1 °F 24.8 °F 28.9 °F 78% 30.03 in 10.0 mi SW 17.3 mph - N/A   Clear
4:53 AM 35.1 °F 25.2 °F 28.0 °F 76% 30.04 in 10.0 mi WSW 16.1 mph - N/A   Clear
5:53 AM 34.0 °F 23.8 °F 28.0 °F 79% 30.07 in 10.0 mi WSW 16.1 mph - N/A   Clear
6:53 AM 34.0 °F 23.4 °F 27.0 °F 75% 30.09 in 10.0 mi WSW 17.3 mph - N/A   Clear
9:53 AM 42.1 °F 31.5 °F 27.0 °F 55% 30.16 in 10.0 mi West 28.8 mph 34.5 mph N/A   Clear
10:53 AM 44.1 °F 34.8 °F 27.0 °F 51% 30.17 in 10.0 mi West 25.3 mph 33.4 mph N/A   Scattered Clouds
11:53 AM 44.1 °F 34.4 °F 26.1 °F 49% 30.18 in 10.0 mi West 27.6 mph 31.1 mph N/A   Mostly Cloudy
12:53 PM 46.9 °F - 23.0 °F 39% 30.18 in 10.0 mi West 28.8 mph 34.5 mph N/A   Scattered Clouds
1:53 PM 51.1 °F - 24.1 °F 35% 30.16 in 10.0 mi West 28.8 mph 38.0 mph N/A   Partly Cloudy
3:53 PM 52.0 °F - 17.1 °F 25% 30.17 in 10.0 mi West 27.6 mph 36.8 mph N/A   Clear
4:53 PM 52.0 °F - 14.0 °F 22% 30.19 in 10.0 mi West 26.5 mph 34.5 mph N/A   Clear
5:53 PM 52.0 °F - 12.9 °F 21% 30.21 in 10.0 mi West 27.6 mph 33.4 mph N/A   Clear
6:53 PM 51.1 °F - 10.9 °F 20% 30.23 in 10.0 mi West 27.6 mph 32.2 mph N/A   Clear
7:53 PM 48.0 °F - 12.0 °F 24% 30.25 in 10.0 mi West 20.7 mph - N/A   Clear
8:53 PM 43.0 °F 36.0 °F 18.0 °F 37% 30.28 in 10.0 mi West 13.8 mph - N/A   Clear
9:53 PM 41.0 °F 33.1 °F 21.0 °F 45% 30.30 in 10.0 mi WSW 15.0 mph - N/A   Clear
10:53 PM 39.0 °F 31.0 °F 19.9 °F 46% 30.33 in 10.0 mi SW 13.8 mph - N/A   Clear
11:53 PM 37.9 °F 29.2 °F 19.9 °F 48% 30.35 in 10.0 mi SSW 15.0 mph - N/A   Clear